• In India
  • List of Countries
  • For 7 days
  • Water Temperature
  • Satellite Maps
  • Weather Map
  • Weather Widgets
  • user-avatar
    Login

    Hourly Weather Spytkowice

    Today, 23 September, Sunday

    Time Temperature Precipitation Wind Pressure Humidity
    00:00 +10°C° 0 mm 2 mps 717 mmHg 68%
    01:00 +10°C° 0 mm 3 mps 716 mmHg 67%
    02:00 +10°C° 0 mm 2 mps 716 mmHg 70%
    03:00 +9°C° 0 mm 2 mps 716 mmHg 73%
    04:00 +9°C° 0 mm 2 mps 716 mmHg 76%
    05:00 +9°C° 0 mm 2 mps 716 mmHg 75%
    06:00 +9°C° 0 mm 2 mps 716 mmHg 73%
    07:00 +10°C° 0 mm 3 mps 715 mmHg 67%
    08:00 +12°C° 0 mm 3 mps 716 mmHg 61%
    09:00 +13°C° 0 mm 4 mps 716 mmHg 55%
    10:00 +15°C° 0 mm 4 mps 716 mmHg 48%
    11:00 +15°C° 0 mm 4 mps 715 mmHg 50%
    12:00 +15°C° 0 mm 4 mps 715 mmHg 51%
    13:00 +15°C° 0 mm 4 mps 715 mmHg 53%
    14:00 +14°C° 0.1 mm 4 mps 714 mmHg 59%
    15:00 +13°C° 0.1 mm 4 mps 713 mmHg 66%
    16:00 +13°C° 0.1 mm 4 mps 712 mmHg 73%
    17:00 +12°C° 0 mm 4 mps 711 mmHg 75%
    18:00 +12°C° 0 mm 4 mps 710 mmHg 76%
    19:00 +11°C° 0 mm 4 mps 709 mmHg 78%
    20:00 +12°C° 0.1 mm 4 mps 708 mmHg 76%
    21:00 +13°C° 0.1 mm 5 mps 707 mmHg 75%
    22:00 +14°C° 0.1 mm 6 mps 706 mmHg 73%
    23:00 +14°C° 1.9 mm 6 mps 705 mmHg 78%

    Tomorrow, 24 September, Monday

    Time Temperature Precipitation Wind Pressure Humidity
    00:00 +14°C° 1.9 mm 6 mps 705 mmHg 83%
    01:00 +14°C° 1.9 mm 6 mps 705 mmHg 88%
    02:00 +12°C° 1.1 mm 7 mps 706 mmHg 88%
    03:00 +10°C° 1.1 mm 8 mps 707 mmHg 88%
    04:00 +7°C° 1.1 mm 8 mps 708 mmHg 88%
    05:00 +8°C° 0.2 mm 7 mps 709 mmHg 88%
    06:00 +7°C° 0.2 mm 6 mps 711 mmHg 88%
    07:00 +6°C° 0.2 mm 5 mps 712 mmHg 88%
    08:00 +5°C° 0.2 mm 6 mps 713 mmHg 86%
    09:00 +5°C° 0.2 mm 6 mps 714 mmHg 84%
    10:00 +5°C° 0.2 mm 7 mps 715 mmHg 81%
    11:00 +6°C° 0.2 mm 7 mps 716 mmHg 76%
    12:00 +6°C° 0.2 mm 7 mps 716 mmHg 71%
    13:00 +8°C° 0.2 mm 7 mps 717 mmHg 66%
    14:00 +8°C° 0.2 mm 7 mps 717 mmHg 66%
    15:00 +6°C° 0.2 mm 7 mps 717 mmHg 66%
    16:00 +6°C° 0.2 mm 7 mps 717 mmHg 65%
    17:00 +5°C° 0.1 mm 6 mps 717 mmHg 69%
    18:00 +5°C° 0.1 mm 5 mps 718 mmHg 72%
    19:00 +4°C° 0.1 mm 4 mps 718 mmHg 76%
    20:00 +4°C° 0 mm 4 mps 718 mmHg 76%
    21:00 +3°C° 0 mm 4 mps 719 mmHg 76%
    22:00 +3°C° 0 mm 4 mps 719 mmHg 76%
    23:00 +3°C° 0.4 mm 4 mps 719 mmHg 80%

    Day after tomorrow, 25 September, Tuesday

    Time Temperature Precipitation Wind Pressure Humidity
    00:00 +3°C° 0.4 mm 4 mps 720 mmHg 84%
    01:00 +3°C° 0.4 mm 4 mps 720 mmHg 88%
    02:00 +3°C° 0.7 mm 4 mps 721 mmHg 89%
    03:00 +3°C° 0.7 mm 4 mps 721 mmHg 90%
    04:00 +3°C° 0.7 mm 3 mps 722 mmHg 91%
    05:00 +3°C° 0.1 mm 3 mps 722 mmHg 90%
    06:00 +3°C° 0.1 mm 3 mps 723 mmHg 89%
    07:00 +3°C° 0.1 mm 3 mps 723 mmHg 88%
    08:00 +4°C° 0.2 mm 3 mps 724 mmHg 84%
    09:00 +5°C° 0.2 mm 4 mps 724 mmHg 79%
    10:00 +6°C° 0.2 mm 4 mps 725 mmHg 74%
    11:00 +6°C° 0.2 mm 4 mps 725 mmHg 72%
    12:00 +7°C° 0.2 mm 4 mps 725 mmHg 70%
    13:00 +7°C° 0.2 mm 4 mps 725 mmHg 68%
    14:00 +7°C° 0.2 mm 4 mps 725 mmHg 68%
    15:00 +8°C° 0.2 mm 3 mps 725 mmHg 69%
    16:00 +8°C° 0.2 mm 3 mps 725 mmHg 69%
    17:00 +7°C° 0.1 mm 3 mps 726 mmHg 75%
    18:00 +5°C° 0.1 mm 2 mps 726 mmHg 80%
    19:00 +4°C° 0.1 mm 2 mps 726 mmHg 86%
    20:00 +4°C° 0 mm 1 mps 727 mmHg 87%
    21:00 +4°C° 0 mm 1 mps 727 mmHg 88%
    22:00 +4°C° 0 mm 1 mps 727 mmHg 89%
    23:00 +4°C° 0 mm 1 mps 727 mmHg 89%

    26 September, Wednesday

    Time Temperature Precipitation Wind Pressure Humidity
    00:00 +3°C° 0 mm 1 mps 727 mmHg 90%
    01:00 +3°C° 0 mm 1 mps 728 mmHg 90%
    02:00 +3°C° 0 mm 1 mps 728 mmHg 90%
    03:00 +2°C° 0 mm 1 mps 728 mmHg 90%
    04:00 +2°C° 0 mm 1 mps 727 mmHg 91%
    05:00 +3°C° 0 mm 1 mps 728 mmHg 87%
    06:00 +4°C° 0 mm 1 mps 728 mmHg 84%
    07:00 +5°C° 0 mm 1 mps 728 mmHg 80%
    08:00 +7°C° 0 mm 1 mps 728 mmHg 71%
    09:00 +9°C° 0 mm 1 mps 728 mmHg 61%
    10:00 +10°C° 0 mm 2 mps 728 mmHg 52%
    11:00 +12°C° 0 mm 2 mps 728 mmHg 49%
    12:00 +13°C° 0 mm 2 mps 727 mmHg 46%
    13:00 +13°C° 0 mm 3 mps 727 mmHg 43%
    14:00 +13°C° 0 mm 2 mps 726 mmHg 46%
    15:00 +13°C° 0 mm 2 mps 726 mmHg 50%
    16:00 +13°C° 0 mm 2 mps 725 mmHg 54%
    17:00 +10°C° 0 mm 2 mps 725 mmHg 61%
    18:00 +8°C° 0 mm 2 mps 725 mmHg 68%
    19:00 +6°C° 0 mm 2 mps 724 mmHg 74%
    20:00 +6°C° 0 mm 2 mps 724 mmHg 72%
    21:00 +6°C° 0 mm 2 mps 724 mmHg 70%
    22:00 +6°C° 0 mm 2 mps 724 mmHg 68%
    23:00 +6°C° 0 mm 2 mps 724 mmHg 68%

    27 September, Thursday

    Time Temperature Precipitation Wind Pressure Humidity
    00:00 +6°C° 0 mm 2 mps 724 mmHg 67%
    01:00 +6°C° 0 mm 2 mps 723 mmHg 67%
    02:00 +6°C° 0 mm 2 mps 723 mmHg 66%
    03:00 +6°C° 0 mm 2 mps 723 mmHg 66%
    04:00 +6°C° 0 mm 2 mps 722 mmHg 66%
    05:00 +7°C° 0 mm 2 mps 722 mmHg 63%
    06:00 +8°C° 0 mm 3 mps 722 mmHg 60%
    07:00 +9°C° 0 mm 3 mps 722 mmHg 57%
    08:00 +11°C° 0 mm 3 mps 723 mmHg 53%
    09:00 +13°C° 0 mm 3 mps 723 mmHg 49%
    10:00 +17°C° 0 mm 3 mps 723 mmHg 45%
    11:00 +18°C° 0 mm 3 mps 723 mmHg 47%
    12:00 +19°C° 0 mm 3 mps 723 mmHg 50%
    13:00 +20°C° 0 mm 3 mps 722 mmHg 53%
    14:00 +19°C° 0 mm 3 mps 722 mmHg 56%
    15:00 +19°C° 0 mm 2 mps 722 mmHg 60%
    16:00 +19°C° 0 mm 2 mps 721 mmHg 64%
    17:00 +17°C° 0 mm 2 mps 721 mmHg 70%
    18:00 +15°C° 0 mm 2 mps 721 mmHg 76%
    19:00 +13°C° 0 mm 1 mps 721 mmHg 82%
    20:00 +12°C° 0 mm 1 mps 721 mmHg 83%
    21:00 +12°C° 0 mm 1 mps 720 mmHg 84%
    22:00 +11°C° 0 mm 1 mps 720 mmHg 84%
    23:00 +11°C° 0 mm 1 mps 720 mmHg 84%

    28 September, Friday

    Time Temperature Precipitation Wind Pressure Humidity
    00:00 +11°C° 0 mm 1 mps 719 mmHg 85%
    01:00 +10°C° 0 mm 2 mps 719 mmHg 85%
    02:00 +10°C° 0 mm 2 mps 719 mmHg 85%
    03:00 +10°C° 0 mm 2 mps 718 mmHg 86%
    04:00 +10°C° 0 mm 2 mps 718 mmHg 86%
    05:00 +10°C° 0 mm 2 mps 718 mmHg 83%
    06:00 +12°C° 0 mm 2 mps 718 mmHg 80%
    07:00 +13°C° 0 mm 2 mps 718 mmHg 78%
    08:00 +15°C° 0 mm 2 mps 718 mmHg 70%
    09:00 +18°C° 0 mm 2 mps 718 mmHg 61%
    10:00 +20°C° 0 mm 2 mps 718 mmHg 53%
    11:00 +21°C° 0 mm 2 mps 718 mmHg 50%
    12:00 +21°C° 0 mm 2 mps 718 mmHg 47%
    13:00 +23°C° 0 mm 2 mps 717 mmHg 45%
    14:00 +21°C° 0 mm 2 mps 717 mmHg 48%
    15:00 +20°C° 0 mm 2 mps 717 mmHg 52%
    16:00 +21°C° 0 mm 1 mps 716 mmHg 56%
    17:00 +19°C° 0 mm 1 mps 716 mmHg 62%
    18:00 +14°C° 0 mm 0 mps 716 mmHg 67%
    19:00 +12°C° 0 mm 0 mps 716 mmHg 73%
    20:00 +12°C° 0 mm 0 mps 716 mmHg 76%
    21:00 +11°C° 0 mm 0 mps 716 mmHg 78%
    22:00 +11°C° 0 mm 0 mps 716 mmHg 80%
    23:00 +10°C° 0 mm 0 mps 716 mmHg 82%
    Show more